| time (UTC) | temp F | wind direction | speed MPH | gust MPH | rain 1hr in | rain 24hr in | rain mn in | humidity % | barometer mb |
| 20260507151816 | 56 | 248 | 5.0 | 9.0 | 0.00 | 0.38 | 0.00 | 53 | 1007.5 |
| 20260507150815 | 56 | 250 | 2.0 | 9.0 | 0.00 | 0.38 | 0.00 | 54 | 1007.8 |
| 20260507145814 | 56 | 252 | 2.0 | 7.0 | 0.00 | 0.38 | 0.00 | 49 | 1007.8 |
| 20260507144813 | 56 | 304 | 3.0 | 11.0 | 0.00 | 0.38 | 0.00 | 49 | 1007.8 |
| 20260507143812 | 55 | 254 | 2.0 | 11.0 | 0.00 | 0.38 | 0.00 | 58 | 1007.8 |
| 20260507142812 | 55 | 258 | 3.0 | 8.0 | 0.00 | 0.38 | 0.00 | 61 | 1007.8 |
| 20260507141811 | 55 | 267 | 2.0 | 10.0 | 0.00 | 0.38 | 0.00 | 65 | 1007.8 |
| 20260507140810 | 53 | 272 | 2.0 | 10.0 | 0.00 | 0.38 | 0.00 | 66 | 1007.8 |
| 20260507135707 | 54 | 258 | 3.0 | 7.0 | 0.00 | 0.38 | 0.00 | 68 | 1007.8 |
| 20260507134636 | 53 | 256 | 3.0 | 7.0 | 0.00 | 0.38 | 0.00 | 72 | 1007.8 |
| 20260507133635 | 52 | 264 | 2.0 | 5.0 | 0.00 | 0.38 | 0.00 | 73 | 1008.1 |
| 20260507132634 | 51 | 249 | 2.0 | 5.0 | 0.00 | 0.38 | 0.00 | 77 | 1008.1 |
| 20260507131633 | 49 | 243 | 2.0 | 8.0 | 0.00 | 0.38 | 0.00 | 78 | 1008.1 |
| 20260507130633 | 48 | 241 | 3.0 | 8.0 | 0.00 | 0.38 | 0.00 | 79 | 1008.1 |
| 20260507125529 | 48 | 163 | 2.0 | 5.0 | 0.00 | 0.38 | 0.00 | 79 | 1008.5 |
| 20260507124529 | 48 | 130 | 0.0 | 2.0 | 0.00 | 0.38 | 0.00 | 80 | 1008.5 |
| 20260507123528 | 48 | 120 | 0.0 | 2.0 | 0.00 | 0.38 | 0.00 | 80 | 1008.1 |
| 20260507122527 | 48 | 115 | 1.0 | 2.0 | 0.00 | 0.38 | 0.00 | 80 | 1008.1 |
| 20260507121527 | 47 | 115 | 0.0 | 0.0 | 0.00 | 0.38 | 0.00 | 80 | 1008.1 |
| 20260507120526 | 46 | 115 | 0.0 | 0.0 | 0.00 | 0.38 | 0.00 | 80 | 1008.1 |
| 20260507115525 | 45 | 114 | 0.0 | 0.0 | 0.00 | 0.38 | 0.00 | 80 | 1008.5 |
| 20260507114524 | 44 | 114 | 0.0 | 0.0 | 0.00 | 0.38 | 0.00 | 79 | 1008.5 |
| 20260507113523 | 43 | 114 | 0.0 | 0.0 | 0.00 | 0.38 | 0.00 | 79 | 1008.1 |
| 20260507112523 | 42 | 114 | 0.0 | 0.0 | 0.00 | 0.38 | 0.00 | 79 | 1008.1 |
| 20260507111522 | 42 | 114 | 0.0 | 0.0 | 0.00 | 0.38 | 0.00 | 78 | 1008.1 |
| 20260507110450 | 41 | 115 | 0.0 | 0.0 | 0.00 | 0.38 | 0.00 | 78 | 1008.1 |
| 20260507105449 | 41 | 115 | 0.0 | 0.0 | 0.00 | 0.38 | 0.00 | 78 | 1008.1 |
| 20260507104448 | 41 | 117 | 0.0 | 0.0 | 0.00 | 0.39 | 0.00 | 78 | 1008.5 |
| 20260507103447 | 41 | 117 | 0.0 | 0.0 | 0.00 | 0.39 | 0.00 | 78 | 1008.1 |
| 20260507102415 | 41 | 117 | 0.0 | 0.0 | 0.00 | 0.39 | 0.00 | 78 | 1007.8 |
| 20260507101414 | 41 | 117 | 0.0 | 0.0 | 0.00 | 0.39 | 0.00 | 78 | 1007.8 |
| 20260507100413 | 41 | 117 | 0.0 | 0.0 | 0.00 | 0.39 | 0.00 | 78 | 1007.8 |
| 20260507095413 | 41 | 117 | 0.0 | 0.0 | 0.00 | 0.39 | 0.00 | 78 | 1008.1 |
| 20260507094412 | 42 | 117 | 0.0 | 0.0 | 0.00 | 0.39 | 0.00 | 78 | 1008.1 |
| 20260507093411 | 42 | 117 | 0.0 | 1.0 | 0.00 | 0.39 | 0.00 | 78 | 1008.1 |
| 20260507092409 | 42 | 117 | 0.0 | 1.0 | 0.00 | 0.39 | 0.00 | 78 | 1008.5 |
| 20260507091408 | 43 | 261 | 0.0 | 1.0 | 0.00 | 0.39 | 0.00 | 78 | 1008.1 |
| 20260507090407 | 43 | 261 | 0.0 | 1.0 | 0.00 | 0.39 | 0.00 | 78 | 1007.8 |
| 20260507085406 | 43 | 261 | 0.0 | 1.0 | 0.00 | 0.39 | 0.00 | 78 | 1007.8 |
| 20260507084406 | 44 | 261 | 0.0 | 0.0 | 0.00 | 0.39 | 0.00 | 78 | 1008.1 |
| 20260507083303 | 44 | 261 | 0.0 | 0.0 | 0.00 | 0.39 | 0.00 | 79 | 1007.8 |
| 20260507082305 | 44 | 261 | 0.0 | 0.0 | 0.00 | 0.39 | 0.00 | 79 | 1007.8 |
| 20260507081229 | 45 | 261 | 0.0 | 0.0 | 0.00 | 0.39 | 0.00 | 79 | 1007.8 |
| 20260507080229 | 45 | 261 | 0.0 | 0.0 | 0.00 | 0.39 | 0.00 | 79 | 1007.8 |
| 20260507075228 | 45 | 261 | 0.0 | 0.0 | 0.00 | 0.39 | 0.00 | 79 | 1007.8 |
| 20260507074228 | 45 | 261 | 0.0 | 2.0 | 0.00 | 0.39 | 0.00 | 79 | 1007.8 |
| 20260507073227 | 45 | 261 | 0.0 | 3.0 | 0.00 | 0.39 | 0.00 | 79 | 1007.5 |
| 20260507072226 | 45 | 261 | 0.0 | 3.0 | 0.00 | 0.39 | 0.00 | 79 | 1007.1 |
| 20260507071225 | 46 | 261 | 2.0 | 3.0 | 0.00 | 0.39 | 0.00 | 79 | 1006.8 |
| 20260507070224 | 46 | 261 | 1.0 | 2.0 | 0.00 | 0.39 | 0.00 | 79 | 1007.1 |
| 20260507065152 | 46 | 261 | 0.0 | 2.0 | 0.00 | 0.39 | 0.00 | 79 | 1007.1 |
| 20260507064119 | 46 | 261 | 1.0 | 3.0 | 0.00 | 0.39 | 0.00 | 79 | 1007.5 |
| 20260507063119 | 46 | 261 | 1.0 | 3.0 | 0.00 | 0.39 | 0.00 | 79 | 1007.1 |
| 20260507062118 | 46 | 261 | 2.0 | 3.0 | 0.00 | 0.39 | 0.00 | 79 | 1007.1 |
| 20260507061117 | 46 | 261 | 2.0 | 4.0 | 0.00 | 0.39 | 0.00 | 79 | 1007.1 |
| 20260507060045 | 46 | 261 | 2.0 | 4.0 | 0.00 | 0.39 | 0.00 | 79 | 1006.8 |
| 20260507055044 | 47 | 261 | 3.0 | 6.0 | 0.00 | 0.39 | 0.00 | 79 | 1007.1 |
| 20260507054012 | 47 | 259 | 4.0 | 6.0 | 0.00 | 0.39 | 0.00 | 79 | 1007.1 |
| 20260507053012 | 47 | 253 | 3.0 | 4.0 | 0.00 | 0.39 | 0.00 | 79 | 1007.1 |
| 20260507052011 | 47 | 253 | 2.0 | 3.0 | 0.00 | 0.39 | 0.00 | 79 | 1007.1 |
| 20260507050939 | 48 | 253 | 1.0 | 2.0 | 0.00 | 0.39 | 0.00 | 79 | 1007.1 |
| 20260507045836 | 48 | 253 | 0.0 | 2.0 | 0.00 | 0.39 | 0.00 | 79 | 1007.1 |
| 20260507044835 | 48 | 253 | 1.0 | 2.0 | 0.00 | 0.39 | 0.00 | 79 | 1006.8 |
| 20260507043834 | 48 | 253 | 1.0 | 2.0 | 0.00 | 0.39 | 0.00 | 79 | 1007.1 |
| 20260507042833 | 48 | 253 | 1.0 | 3.0 | 0.00 | 0.39 | 0.00 | 79 | 1006.8 |
| 20260507041833 | 48 | 253 | 1.0 | 3.0 | 0.01 | 0.39 | 0.00 | 79 | 1006.8 |
| 20260507040832 | 48 | 253 | 2.0 | 3.0 | 0.01 | 0.39 | 0.00 | 79 | 1006.8 |
| 20260507035831 | 48 | 253 | 1.0 | 3.0 | 0.01 | 0.39 | 0.39 | 79 | 1006.8 |
| 20260507034831 | 48 | 253 | 2.0 | 4.0 | 0.02 | 0.39 | 0.39 | 79 | 1006.8 |
| 20260507033830 | 48 | 252 | 2.0 | 4.0 | 0.02 | 0.39 | 0.39 | 79 | 1006.8 |
| 20260507032829 | 48 | 252 | 2.0 | 4.0 | 0.02 | 0.39 | 0.39 | 79 | 1007.1 |
| 20260507031828 | 49 | 252 | 2.0 | 4.0 | 0.01 | 0.38 | 0.38 | 79 | 1007.1 |
| 20260507030827 | 49 | 252 | 1.0 | 6.0 | 0.01 | 0.38 | 0.38 | 79 | 1006.8 |
| 20260507025826 | 49 | 255 | 2.0 | 7.0 | 0.01 | 0.39 | 0.38 | 79 | 1006.8 |
| 20260507024825 | 50 | 259 | 2.0 | 7.0 | 0.01 | 0.38 | 0.37 | 79 | 1006.8 |
| 20260507023825 | 50 | 264 | 3.0 | 4.0 | 0.01 | 0.38 | 0.37 | 79 | 1006.8 |
| 20260507022824 | 51 | 261 | 2.0 | 6.0 | 0.02 | 0.38 | 0.37 | 79 | 1006.8 |
| 20260507021752 | 51 | 262 | 3.0 | 6.0 | 0.02 | 0.38 | 0.37 | 79 | 1006.8 |
| 20260507020751 | 51 | 262 | 2.0 | 4.0 | 0.02 | 0.38 | 0.37 | 79 | 1006.8 |
| 20260507015648 | 51 | 263 | 1.0 | 3.0 | 0.02 | 0.38 | 0.37 | 79 | 1006.4 |
| 20260507014647 | 52 | 263 | 2.0 | 3.0 | 0.01 | 0.37 | 0.36 | 79 | 1006.4 |
| 20260507013544 | 52 | 263 | 2.0 | 4.0 | 0.01 | 0.37 | 0.36 | 79 | 1006.4 |
| 20260507012544 | 52 | 263 | 1.0 | 4.0 | 0.01 | 0.36 | 0.35 | 79 | 1006.1 |
| 20260507011543 | 53 | 263 | 2.0 | 4.0 | 0.02 | 0.36 | 0.35 | 79 | 1005.8 |
| 20260507010542 | 53 | 232 | 1.0 | 4.0 | 0.02 | 0.36 | 0.35 | 79 | 1005.8 |
| 20260507005509 | 53 | 225 | 1.0 | 4.0 | 0.02 | 0.36 | 0.35 | 79 | 1005.4 |
| 20260507004509 | 53 | 221 | 2.0 | 6.0 | 0.03 | 0.36 | 0.35 | 79 | 1005.4 |
| 20260507003508 | 54 | 252 | 1.0 | 6.0 | 0.04 | 0.36 | 0.35 | 79 | 1005.4 |
| 20260507002508 | 55 | 199 | 2.0 | 4.0 | 0.03 | 0.35 | 0.34 | 79 | 1005.1 |
| 20260507001507 | 55 | 141 | 2.0 | 6.0 | 0.02 | 0.34 | 0.33 | 79 | 1005.1 |
| 20260507000506 | 57 | 143 | 1.0 | 7.0 | 0.02 | 0.34 | 0.33 | 79 | 1004.7 |
| 20260506235505 | 59 | 132 | 2.0 | 6.0 | 0.04 | 0.34 | 0.33 | 80 | 1004.4 |
| 20260506234505 | 61 | 219 | 0.0 | 3.0 | 0.03 | 0.32 | 0.31 | 81 | 1004.1 |
| 20260506233433 | 61 | 91 | 0.0 | 2.0 | 0.05 | 0.32 | 0.31 | 81 | 1004.1 |
| 20260506232432 | 61 | 91 | 0.0 | 2.0 | 0.05 | 0.32 | 0.31 | 81 | 1003.7 |
| 20260506231431 | 61 | 91 | 0.0 | 2.0 | 0.06 | 0.32 | 0.31 | 81 | 1003.7 |
| 20260506230431 | 61 | 91 | 0.0 | 2.0 | 0.05 | 0.31 | 0.30 | 81 | 1004.1 |
| 20260506225430 | 61 | 92 | 0.0 | 2.0 | 0.04 | 0.30 | 0.29 | 81 | 1004.1 |
| 20260506224429 | 61 | 91 | 0.0 | 2.0 | 0.03 | 0.29 | 0.29 | 81 | 1003.7 |
| 20260506223428 | 62 | 91 | 0.0 | 1.0 | 0.01 | 0.28 | 0.27 | 81 | 1003.7 |
| 20260506222428 | 62 | 91 | 0.0 | 3.0 | 0.01 | 0.28 | 0.27 | 81 | 1003.7 |
| 20260506221427 | 62 | 91 | 0.0 | 3.0 | 0.00 | 0.27 | 0.26 | 81 | 1003.7 |
| 20260506220426 | 62 | 110 | 1.0 | 3.0 | 0.00 | 0.28 | 0.26 | 81 | 1003.7 |
| 20260506215323 | 62 | 111 | 1.0 | 3.0 | 0.01 | 0.29 | 0.26 | 81 | 1003.7 |
| 20260506214322 | 62 | 111 | 1.0 | 4.0 | 0.02 | 0.29 | 0.26 | 80 | 1003.7 |
| 20260506213322 | 62 | 112 | 1.0 | 4.0 | 0.02 | 0.32 | 0.26 | 80 | 1003.7 |
| 20260506212321 | 62 | 59 | 1.0 | 3.0 | 0.03 | 0.34 | 0.26 | 80 | 1004.1 |
| 20260506211249 | 62 | 64 | 1.0 | 3.0 | 0.03 | 0.34 | 0.26 | 80 | 1004.1 |
| 20260506210248 | 62 | 65 | 1.0 | 3.0 | 0.03 | 0.33 | 0.25 | 80 | 1004.1 |
| 20260506205216 | 62 | 65 | 1.0 | 9.0 | 0.04 | 0.33 | 0.25 | 80 | 1004.1 |
| 20260506204215 | 62 | 62 | 2.0 | 9.0 | 0.03 | 0.32 | 0.24 | 80 | 1004.1 |
| 20260506203214 | 62 | 50 | 1.0 | 8.0 | 0.05 | 0.32 | 0.24 | 80 | 1004.1 |
| 20260506202213 | 62 | 67 | 1.0 | 5.0 | 0.06 | 0.31 | 0.23 | 80 | 1004.4 |
| 20260506201213 | 62 | 69 | 2.0 | 5.0 | 0.08 | 0.31 | 0.23 | 80 | 1004.4 |
| 20260506200212 | 62 | 53 | 2.0 | 5.0 | 0.08 | 0.30 | 0.22 | 80 | 1004.4 |
| 20260506195211 | 63 | 51 | 1.0 | 5.0 | 0.08 | 0.29 | 0.21 | 80 | 1004.7 |
| 20260506194210 | 63 | 65 | 2.0 | 4.0 | 0.09 | 0.29 | 0.21 | 80 | 1004.7 |
| 20260506193209 | 62 | 68 | 0.0 | 3.0 | 0.07 | 0.27 | 0.18 | 79 | 1005.1 |
| 20260506192137 | 63 | 68 | 0.0 | 4.0 | 0.06 | 0.25 | 0.17 | 79 | 1005.1 |
| 20260506191136 | 63 | 67 | 0.0 | 5.0 | 0.05 | 0.23 | 0.15 | 79 | 1005.1 |
| 20260506190135 | 63 | 61 | 2.0 | 6.0 | 0.06 | 0.22 | 0.14 | 79 | 1005.1 |
| 20260506185135 | 63 | 47 | 2.0 | 6.0 | 0.05 | 0.20 | 0.12 | 79 | 1005.1 |
| 20260506184103 | 63 | 46 | 1.0 | 6.0 | 0.06 | 0.20 | 0.12 | 78 | 1005.4 |
| 20260506183031 | 63 | 74 | 2.0 | 4.0 | 0.06 | 0.19 | 0.11 | 78 | 1005.4 |
| 20260506182030 | 63 | 57 | 1.0 | 10.0 | 0.08 | 0.19 | 0.11 | 78 | 1005.4 |
| 20260506181030 | 63 | 70 | 0.0 | 10.0 | 0.07 | 0.17 | 0.09 | 78 | 1005.8 |
| 20260506180029 | 64 | 54 | 1.0 | 4.0 | 0.07 | 0.17 | 0.08 | 77 | 1006.1 |
| 20260506175028 | 64 | 55 | 3.0 | 4.0 | 0.06 | 0.16 | 0.07 | 77 | 1006.1 |
| 20260506174028 | 64 | 44 | 0.0 | 2.0 | 0.06 | 0.14 | 0.06 | 77 | 1006.1 |
| 20260506173026 | 64 | 44 | 1.0 | 2.0 | 0.05 | 0.13 | 0.05 | 77 | 1006.1 |
| 20260506172025 | 64 | 44 | 1.0 | 2.0 | 0.03 | 0.11 | 0.03 | 77 | 1006.1 |
| 20260506171024 | 65 | 44 | 0.0 | 2.0 | 0.02 | 0.10 | 0.02 | 76 | 1006.4 |
| 20260506170023 | 65 | 44 | 1.0 | 2.0 | 0.01 | 0.09 | 0.01 | 76 | 1006.1 |
| 20260506165023 | 65 | 44 | 0.0 | 2.0 | 0.00 | 0.08 | 0.00 | 76 | 1006.4 |
| 20260506163951 | 65 | 44 | 0.0 | 2.0 | 0.00 | 0.08 | 0.00 | 76 | 1006.1 |
| 20260506162950 | 65 | 44 | 0.0 | 0.0 | 0.00 | 0.08 | 0.00 | 76 | 1006.4 |
| 20260506161949 | 65 | 44 | 0.0 | 1.0 | 0.00 | 0.08 | 0.00 | 76 | 1006.4 |
| 20260506160948 | 65 | 44 | 0.0 | 3.0 | 0.00 | 0.08 | 0.00 | 77 | 1006.4 |
| 20260506155948 | 64 | 46 | 0.0 | 3.0 | 0.00 | 0.08 | 0.00 | 77 | 1006.8 |
| 20260506154947 | 64 | 46 | 1.0 | 2.0 | 0.00 | 0.08 | 0.00 | 77 | 1007.1 |
| 20260506153946 | 63 | 46 | 0.0 | 2.0 | 0.00 | 0.08 | 0.00 | 77 | 1007.5 |
| 20260506152945 | 63 | 51 | 0.0 | 3.0 | 0.00 | 0.08 | 0.00 | 78 | 1007.5 |
| 20260506151945 | 63 | 51 | 0.0 | 3.0 | 0.00 | 0.08 | 0.00 | 78 | 1007.5 |